Location: Newark
(16.3678°N, 77.8722°E)
Time: 16:09:23
(UTC+00:00)

Tiros 1 - Pass Details

Date: 16 December 2019
Orbit: 630 x 664 km, 48.4° (Epoch: 19 January)

Event Time Altitude Azimuth Distance (km) Brightness Sun altitude
Rises 19:14:41 0° 189° (S) 2,982 - -80.0°
Reaches altitude 10° 19:17:40 10° 171° (S) 2,070 - -79.5°
Maximum altitude 19:20:57 19° 127° (SE) 1,579 - -78.9°
Drops below altitude 10° 19:24:14 10° 83° (E) 2,066 - -78.3°
Sets 19:27:11 0° 65° (ENE) 2,973 - -77.7°
